Regional Weather Roundup
Issued by NWS

Home | Current Version | Previous Version | Text Only | Print | Product List | Glossary Off
Versions: 1 2 3 4 5 6 7 8 9 10 11 12 13 14 15 16 17 18 19 20 21 22 23 24 25 26 27 28 29 30 31 32 33 34 35 36 37 38 39 40 41 42 43 44 45 46 47 48 49 50

000
ASUS43 KDTX 221301
RWRMI
MICHIGAN HOURLY REGIONAL WEATHER ROUNDUP
NATIONAL WEATHER SERVICE DETROIT/PONTIAC MI
900 AM EDT FRI MAY 22 2015

NOTE: "FAIR" INDICATES FEW OR NO CLOUDS BELOW 12,000 FEET WITH NO
SIGNIFICANT WEATHER AND/OR OBSTRUCTION TO VISIBILITY.

MIZ047>049-052>055-059>063-066>070-074>076-081>083-221400-
SOUTHEAST LOWER MICHIGAN

CITY           SKY/WX    TMP DP  RH WIND       PRES   REMARKS
ADRIAN         PTSUNNY   54  27  35 N10       30.15R
ALMA           SUNNY     49  30  47 N9        30.17S
ANN ARBOR      SUNNY     54  26  34 NW12      30.14R
BAD AXE        PTSUNNY   46  33  62 N8        30.15R
CARO           SUNNY     48  36  63 N8        30.15R
DETROIT CITY   SUNNY     54  27  35 NW9       30.13R
DETROIT        MOSUNNY   56  30  37 NW12      30.14R
FLINT          SUNNY     51  31  46 N8        30.17R
GROSSE ILE     SUNNY     55  25  30 N9        30.12R
HILLSDALE      MOSUNNY   53  28  37 N7        30.15R
HOWELL         SUNNY     51  25  35 NW7       30.15R

CITY           SKY/WX    TMP DP  RH WIND       PRES   REMARKS
JACKSON        SUNNY     53  28  38 N10       30.16R
LAMBERTVILLE   MOSUNNY   54  32  43 N6        30.14R
LANSING        SUNNY     51  24  34 N9        30.17R
LAPEER         FAIR      48  33  55 N8        30.15R
MASON          SUNNY     50  29  43 N6        30.16R
MONROE         SUNNY     55  28  35 N9        30.13R
MT. CLEMENS    MOSUNNY   52  33  47 NW10      30.10R
PONTIAC        MOSUNNY   51  30  44 N13       30.13R
PORT HOPE        N/A     47  37  68 N5        30.13R
PORT HURON     SUNNY     48  34  57 NW13G18   30.11S
TRI CITIES     SUNNY     49  31  49 N12       30.18R
MIDLAND        FAIR      49  31  49 N5        30.17R
TROY           SUNNY     53  26  35 NW10      30.14R
SAGINAW HB     SUNNY     50  34  53 N12       30.16R
$$
MIZ043>046-050>051-056>058-064>065-071>073-077>080-221400-
SOUTHWEST LOWER MICHIGAN

CITY           SKY/WX    TMP DP  RH WIND       PRES   REMARKS
BATTLE CREEK   SUNNY     54  25  32 N7        30.17R
BENTON HARBOR  SUNNY     54  41  61 E7        30.17R
BIG RAPIDS     SUNNY     48  25  40 N7        30.18R
COLDWATER      SUNNY     52  32  47 NE5       30.16R
FREMONT        FAIR      48  28  45 CALM      30.19R
HOLLAND        SUNNY     54  28  36 VRB5      30.19R
GRAND RAPIDS   SUNNY     54  24  31 NE6       30.18R
IONIA          FAIR      52  25  35 NE7       30.16R
KALAMAZOO      SUNNY     55  24  30 NE7       30.17R
LUDINGTON      SUNNY     51  32  48 N5        30.20R
MARSHALL       SUNNY     54  24  31 CALM      30.15S
MOUNT PLEASANT SUNNY     47  30  51 N7        30.17R
MUSKEGON       SUNNY     54  25  32 VRB5      30.19R
SOUTH HAVEN    SUNNY     53  33  45 E6        30.17R
$$
MIZ016>042-221400-
NORTHERN LOWER MICHIGAN

CITY           SKY/WX    TMP DP  RH WIND       PRES   REMARKS
ALPENA         SUNNY     47  28  47 NW10      30.17R
BEAVER ISLAND  SUNNY     44  26  48 NE7       30.21R
BELLAIRE       SUNNY     44  34  69 CALM      30.21R
CADILLAC       SUNNY     47  29  48 CALM      30.17R
CHARLEVOIX     SUNNY     43  37  80 N5        30.23R
FRANKFORT      SUNNY     49  29  46 N5        30.20R
GAYLORD        SUNNY     45  23  42 NE6       30.17R
HARBOR SPRINGS SUNNY     44  28  52 N5        30.19R
HOUGHTON LAKE  SUNNY     46  28  49 NE6       30.17R
MANISTEE       SUNNY     46  30  53 NW7       30.21R
OSCODA         SUNNY     48  30  48 N10       30.15S
PELLSTON       SUNNY     45  25  45 NW5       30.20R
ROGERS CITY    SUNNY     42  30  62 N10       30.19R
TRAVERSE CITY  SUNNY     47  31  53 N6        30.20R
$$
MIZ007>008-015-221400-
EASTERN UPPER MICHIGAN

CITY           SKY/WX    TMP DP  RH WIND       PRES   REMARKS
KINROSS        SUNNY     39  21  48 NW10      30.18S WCI  32
NEWBERRY       SUNNY     39  22  50 N5        30.20R
S. S. MARIE    SUNNY     39  20  46 NW10      30.18R WCI  32
$$
MIZ004>006-011>014-085-221400-
CENTRAL UPPER MICHIGAN

CITY           SKY/WX    TMP DP  RH WIND       PRES   REMARKS
MANISTIQUE     SUNNY     44  25  47 NE7       30.21R
ESCANABA       SUNNY     45  28  53 E5        30.21S
MENOMINEE      SUNNY     45  25  45 NE3       30.21R
SAWYER-GWINN   SUNNY     41  27  56 CALM      30.20R
$$
MIZ001>003-009>011-084-221400-
WESTERN UPPER MICHIGAN

CITY           SKY/WX    TMP DP  RH WIND       PRES   REMARKS
IRON MOUNTAIN  SUNNY     44  27  51 CALM      30.19S
HOUGHTON       SUNNY     41  30  65 E6        30.21R
COPPER HARBOR    N/A     42  26  53 VRB5      30.23R
IRONWOOD       SUNNY     46  37  71 CALM      30.17S
$$

ABBREVIATIONS USED IN REMARKS
   TC - TEMPERATURE IN CELSIUS
  WCI - WIND CHILL INDEX
   HX - HEAT INDEX
  VSB - VISIBILITY




USA.gov is the U.S. government's official web portal to all federal, state and local government web resources and services.